Fort Yukon, AK

11:35 AM AKST on December 10, 2016 (GMT -0900)
Fort Yukon

Weather History for PFYU - March, 2013

Change the Weather History Date:

Friday, March 15, 2013

  Actual Average Record
Temperature  
Mean Temperature 0 °F -  
Max Temperature 10 °F 13 °F 28 °F (2005)
Min Temperature -9 °F -8 °F -41 °F (2015)
Degree Days  
Heating Degree Days 64    
Moisture  
Dew Point -22 °F    
Average Humidity 35    
Maximum Humidity 43    
Minimum Humidity 17    
Precipitation  
Precipitation 0.00 in - - ()
Sea Level Pressure  
Sea Level Pressure 30.29 in    
Wind  
Wind Speed 10 mph (ENE)    
Max Wind Speed 15 mph    
Max Gust Speed 21 mph    
Visibility 10 miles    
Events      
Averages and records for this station are not official NWS values.
T = Trace of Precipitation, MM = Missing Value Source: NWS Daily Summary

Daily Weather History Graph

Daily Weather History Graph

Search for Another Location

Airport or City:

Trip Planner

Search our weather history database for the weather conditions in past years. The results will help you decide how hot, cold, wet, or windy it might be!

Date:

Astronomy

Mar. 15, 2013 Rise Set
Actual Time 7:58 AM AKDT 7:42 PM AKDT
Civil Twilight 7:06 AM AKDT 8:34 PM AKDT
Nautical Twilight 6:04 AM AKDT 9:38 PM AKDT
Astronomical Twilight 4:52 AM AKDT 10:50 PM AKDT
Moon 7:59 AM AKDT (3/15) 12:55 AM AKDT (3/15)
Length of Visible Light 13h 27m
Length of Day
11h 43m
Waxing Crescent, 16% of the Moon is Illuminated
Mar 15
Waxing Crescent
Mar 19
First Quarter
Mar 27
Full
Apr 2
Last Quarter
Apr 10
New

Hourly Weather History & Observations

Time (AKDT) Temp. Windchill Dew Point Humidity Pressure Visibility Wind Dir Wind Speed Gust Speed Precip Events Conditions
12:16 AM -2.2 °F -18.9 °F -25.6 °F 32% 30.42 in 10.0 mi ENE 10.4 mph - N/A   Clear
12:36 AM -2.2 °F -16.8 °F -25.6 °F 32% 30.43 in 10.0 mi ENE 8.1 mph - N/A   Clear
12:56 AM -4.0 °F -20.2 °F -25.6 °F 35% 30.42 in 10.0 mi ENE 9.2 mph - N/A   Clear
1:16 AM -4.0 °F -20.2 °F -25.6 °F 35% 30.42 in 10.0 mi ENE 9.2 mph - N/A   Clear
1:36 AM -4.0 °F -20.2 °F -25.6 °F 35% 30.42 in 10.0 mi ENE 9.2 mph - N/A   Clear
1:56 AM -4.0 °F -19.0 °F -25.6 °F 35% 30.42 in 10.0 mi ENE 8.1 mph - N/A   Clear
2:16 AM -4.0 °F -20.2 °F -25.6 °F 35% 30.41 in 10.0 mi ENE 9.2 mph - N/A   Clear
2:36 AM -4.0 °F -19.0 °F -25.6 °F 35% 30.41 in 10.0 mi ENE 8.1 mph - N/A   Clear
2:56 AM -4.0 °F -17.8 °F -25.6 °F 35% 30.41 in 10.0 mi ENE 6.9 mph - N/A   Clear
3:16 AM -5.8 °F -21.2 °F -27.4 °F 35% 30.40 in 10.0 mi ENE 8.1 mph - N/A   Clear
3:36 AM -5.8 °F -18.4 °F -27.4 °F 35% 30.40 in 10.0 mi ENE 5.8 mph - N/A   Clear
3:56 AM -5.8 °F -18.4 °F -27.4 °F 35% 30.40 in 10.0 mi ENE 5.8 mph - N/A   Clear
4:16 AM -5.8 °F -21.2 °F -25.6 °F 38% 30.39 in 10.0 mi ENE 8.1 mph - N/A   Clear
4:36 AM -7.6 °F -24.6 °F -27.4 °F 38% 30.39 in 10.0 mi NE 9.2 mph - N/A   Clear
4:56 AM -7.6 °F -25.7 °F -25.6 °F 41% 30.38 in 10.0 mi NE 10.4 mph - N/A   Clear
5:16 AM -7.6 °F -23.4 °F -25.6 °F 41% 30.38 in 10.0 mi ENE 8.1 mph - N/A   Clear
5:36 AM -7.6 °F -23.4 °F -25.6 °F 41% 30.37 in 10.0 mi ENE 8.1 mph - N/A   Clear
5:56 AM -7.6 °F -22.1 °F -27.4 °F 38% 30.37 in 10.0 mi ENE 6.9 mph - N/A   Clear
6:16 AM -7.6 °F -20.6 °F -27.4 °F 38% 30.37 in 10.0 mi ENE 5.8 mph - N/A   Clear
6:36 AM -7.6 °F -22.1 °F -27.4 °F 38% 30.36 in 10.0 mi ENE 6.9 mph - N/A   Clear
6:56 AM -9.4 °F -22.7 °F -27.4 °F 41% 30.36 in 10.0 mi ENE 5.8 mph - N/A   Clear
7:16 AM -9.4 °F -24.3 °F -27.4 °F 41% 30.36 in 10.0 mi ENE 6.9 mph - N/A   Clear
7:36 AM -7.6 °F -23.4 °F -25.6 °F 41% 30.35 in 10.0 mi ENE 8.1 mph - N/A   Clear
7:56 AM -7.6 °F -22.1 °F -25.6 °F 41% 30.35 in 10.0 mi ENE 6.9 mph - N/A   Clear
8:16 AM -7.6 °F -22.1 °F -25.6 °F 41% 30.34 in 10.0 mi NE 6.9 mph - N/A   Clear
8:36 AM -7.6 °F -22.1 °F -25.6 °F 41% 30.34 in 10.0 mi ENE 6.9 mph - N/A   Clear
8:56 AM -7.6 °F -20.6 °F -25.6 °F 41% 30.33 in 10.0 mi ENE 5.8 mph - N/A   Clear
9:16 AM -5.8 °F -24.4 °F -23.8 °F 42% 30.33 in 10.0 mi ENE 11.5 mph - N/A   Clear
9:36 AM -4.0 °F -23.7 °F -22.0 °F 42% 30.32 in 10.0 mi ENE 13.8 mph - N/A   Clear
9:56 AM -2.2 °F -18.0 °F -23.8 °F 35% 30.32 in 10.0 mi ENE 9.2 mph 17.3 mph N/A   Clear
10:16 AM -0.4 °F -16.7 °F -22.0 °F 36% 30.32 in 10.0 mi ENE 10.4 mph 17.3 mph N/A   Clear
10:36 AM -0.4 °F -17.6 °F -23.8 °F 32% 30.31 in 10.0 mi ENE 11.5 mph - N/A   Clear
10:56 AM -0.4 °F -19.2 °F -22.0 °F 36% 30.31 in 10.0 mi ENE 13.8 mph 18.4 mph N/A   Clear
11:16 AM 1.4 °F -16.1 °F -20.2 °F 36% 30.31 in 10.0 mi ENE 12.7 mph 19.6 mph N/A   Clear
11:36 AM 1.4 °F -16.1 °F -20.2 °F 36% 30.30 in 10.0 mi ENE 12.7 mph 18.4 mph N/A   Clear
11:56 AM 3.2 °F -13.1 °F -20.2 °F 33% 30.29 in 10.0 mi NE 11.5 mph 16.1 mph N/A   Clear
12:16 PM 3.2 °F -14.6 °F -20.2 °F 33% 30.29 in 10.0 mi NE 13.8 mph - N/A   Clear
12:36 PM 5.0 °F -13.0 °F -18.4 °F 33% 30.28 in 10.0 mi ENE 15.0 mph 19.6 mph N/A   Clear
12:56 PM 6.8 °F -10.0 °F -18.4 °F 31% 30.28 in 10.0 mi ENE 13.8 mph 18.4 mph N/A   Clear
1:16 PM 6.8 °F -9.3 °F -18.4 °F 31% 30.27 in 10.0 mi ENE 12.7 mph 18.4 mph N/A   Clear
1:36 PM 8.6 °F -7.0 °F -18.4 °F 28% 30.27 in 10.0 mi ENE 12.7 mph 20.7 mph N/A   Clear
1:56 PM 8.6 °F -8.3 °F -18.4 °F 28% 30.26 in 10.0 mi NE 15.0 mph - N/A   Clear
2:16 PM 8.6 °F -5.5 °F -18.4 °F 28% 30.25 in 10.0 mi ENE 10.4 mph 17.3 mph N/A   Clear
2:36 PM 8.6 °F -7.0 °F -16.6 °F 31% 30.24 in 10.0 mi ENE 12.7 mph - N/A   Clear
2:56 PM 8.6 °F -5.5 °F -16.6 °F 31% 30.23 in 10.0 mi ENE 10.4 mph - N/A   Clear
3:16 PM 10.4 °F -5.4 °F -16.6 °F 29% 30.23 in 10.0 mi ENE 13.8 mph 18.4 mph N/A   Clear
3:36 PM 10.4 °F -4.8 °F -14.8 °F 31% 30.22 in 10.0 mi ENE 12.7 mph 18.4 mph N/A   Clear
3:56 PM 10.4 °F -4.8 °F -16.6 °F 29% 30.21 in 10.0 mi ENE 12.7 mph 19.6 mph N/A   Clear
4:16 PM 10.4 °F -3.3 °F -16.6 °F 29% 30.21 in 10.0 mi ENE 10.4 mph 16.1 mph N/A   Clear
4:36 PM 10.4 °F -4.8 °F -16.6 °F 29% 30.20 in 10.0 mi ENE 12.7 mph 19.6 mph N/A   Clear
4:56 PM 10.4 °F -6.0 °F -16.6 °F 29% 30.20 in 10.0 mi ENE 15.0 mph 18.4 mph N/A   Clear
5:16 PM 10.4 °F -3.3 °F -14.8 °F 31% 30.19 in 10.0 mi ENE 10.4 mph 18.4 mph N/A   Clear
5:56 PM - - - N/A% 30.18 in 10.0 mi ENE 15.0 mph 20.7 mph N/A   Clear
6:16 PM - - - N/A% 30.17 in 10.0 mi ENE 12.7 mph 19.6 mph N/A   Clear
6:36 PM 8.6 °F -8.3 °F -16.6 °F 31% 30.17 in 10.0 mi NE 15.0 mph 20.7 mph N/A   Clear
6:56 PM 8.6 °F -7.7 °F -14.8 °F 34% 30.17 in 10.0 mi NE 13.8 mph 20.7 mph N/A   Clear
7:16 PM 8.6 °F -3.7 °F -16.6 °F 31% 30.17 in 10.0 mi NE 8.1 mph - N/A   Clear
7:36 PM 6.8 °F -9.3 °F -16.6 °F 34% 30.17 in 10.0 mi NE 12.7 mph - N/A   Clear
7:56 PM 6.8 °F -7.8 °F -16.6 °F 34% 30.17 in 10.0 mi NE 10.4 mph - N/A   Clear
8:16 PM 5.0 °F -10.0 °F -16.6 °F 36% 30.16 in 10.0 mi NE 10.4 mph - N/A   Clear
8:36 PM 3.2 °F -12.2 °F -16.6 °F 39% 30.16 in 10.0 mi ENE 10.4 mph - N/A   Clear
9:56 PM 1.4 °F -12.5 °F -18.4 °F 39% 30.16 in 10.0 mi ENE 8.1 mph - N/A   Clear
10:16 PM 1.4 °F -12.5 °F -18.4 °F 39% 30.17 in 10.0 mi ENE 8.1 mph - N/A   Clear
10:36 PM 1.4 °F -14.5 °F -18.4 °F 39% 30.17 in 10.0 mi ENE 10.4 mph - N/A   Clear
10:56 PM 1.4 °F -13.5 °F -18.4 °F 39% 30.17 in 10.0 mi ENE 9.2 mph - N/A   Clear
11:16 PM -0.4 °F -16.7 °F -18.4 °F 43% 30.17 in 10.0 mi ENE 10.4 mph - N/A   Clear
11:36 PM -0.4 °F -13.4 °F -20.2 °F 39% 30.18 in 10.0 mi ENE 6.9 mph - N/A   Clear
11:56 PM -2.2 °F -15.6 °F -20.2 °F 42% 30.19 in 10.0 mi NE 6.9 mph - N/A   Clear